Location: Evensen
(52.5775°N, 9.5258°E)
Time: 05:47:36
(UTC+00:00)

Meteor 1-10 Rocket - Pass Details

Date: 15 May 2026
Orbit: 834 x 909 km, 81.3° (Epoch: 6 June)

Event Time Altitude Azimuth Distance (km) Brightness Sun altitude
Exits shadow 23:11:30 29° 199° (SSW) 1,596 5.1 -18.4°
Maximum altitude 23:14:41 81° 284° (WNW) 926 4.4 -18.4°
Drops below altitude 10° 23:20:41 10° 12° (NNE) 2,607 8.0 -18.4°
Sets 23:23:10 0° 13° (NNE) 3,551 9.0 -18.4°
